Retour au catalogue

STARLINK-38095

ActifCommunicationsSSO
NORAD 100179·PAYLOAD·🇺🇸 United States

Lancé Aug 1, 2026 depuis Vandenberg Space Force Base

Loading…

Prochains Passages (prochaines 24 heures)

TLE

FraisSource: Space-Track

Époque: Sep 14, 2026, 08:02 UTC

1 A0179U 26175A   26257.33537387  .00142492  00000-0  93993-3 0  9997
2 A0179  97.2830  99.4333 0001039 166.9526 193.1766 15.75200477  8208

Suivez STARLINK-38095 en temps réel avec AllMySat

Download on the App Store